Time,TemperatureF,DewpointF,PressureIn,WindDirection,WindDirectionDegrees,WindSpeedMPH,WindSpeedGustMPH,Humidity,HourlyPrecipIn,Conditions,Clouds,dailyrainin,SoftwareType,DateUTC
2013-01-07 00:00:00,6.3,-10.0,17.72,NNW,343,0.0,0.0,46,0.00,,,0.00,WeatherTracker,2013-01-07 05:00:00,
2013-01-07 00:06:00,6.3,-10.0,17.72,NNW,343,0.0,0.0,46,0.00,,,0.00,WeatherTracker,2013-01-07 05:06:00,
2013-01-07 00:11:00,6.3,-10.0,17.72,NNW,343,0.0,0.0,46,0.00,,,0.00,WeatherTracker,2013-01-07 05:11:00,
2013-01-07 00:16:00,6.3,-10.0,17.72,NNW,343,0.0,0.0,46,0.00,,,0.00,WeatherTracker,2013-01-07 05:16:00,
2013-01-07 00:21:00,6.3,-10.0,17.72,NNW,344,0.0,0.0,46,0.00,,,0.00,WeatherTracker,2013-01-07 05:21:00,
2013-01-07 00:26:00,6.3,-10.0,17.72,NNW,343,0.0,0.0,46,0.00,,,0.00,WeatherTracker,2013-01-07 05:26:00,
2013-01-07 00:31:00,6.3,-10.0,17.72,NNW,343,0.0,0.0,46,0.00,,,0.00,WeatherTracker,2013-01-07 05:31:00,
2013-01-07 00:36:00,6.3,-10.0,17.72,NNW,343,0.0,0.0,46,0.00,,,0.00,WeatherTracker,2013-01-07 05:36:00,
2013-01-07 00:41:00,6.4,-9.9,17.72,NNW,343,0.0,0.0,46,0.00,,,0.00,WeatherTracker,2013-01-07 05:41:00,
2013-01-07 00:46:00,6.4,-9.9,17.72,NNW,343,0.0,0.0,46,0.00,,,0.00,WeatherTracker,2013-01-07 05:46:00,
2013-01-07 00:51:00,6.6,-9.7,17.72,NNW,343,0.0,0.0,46,0.00,,,0.00,WeatherTracker,2013-01-07 05:51:00,
2013-01-07 00:56:00,6.8,-9.5,17.72,NNW,343,0.0,0.0,46,0.00,,,0.00,WeatherTracker,2013-01-07 05:56:00,
2013-01-07 01:01:00,6.8,-9.5,17.72,NNW,343,0.0,0.0,46,0.00,,,0.00,WeatherTracker,2013-01-07 06:01:00,
2013-01-07 01:06:00,6.8,-9.5,17.72,NNW,343,0.0,0.0,46,0.00,,,0.00,WeatherTracker,2013-01-07 06:06:00,
2013-01-07 01:11:00,7.0,-9.4,17.72,NNW,343,0.0,0.0,46,0.00,,,0.00,WeatherTracker,2013-01-07 06:11:00,
2013-01-07 01:16:00,7.0,-9.4,17.72,NNW,343,0.0,0.0,46,0.00,,,0.00,WeatherTracker,2013-01-07 06:16:00,
2013-01-07 01:21:00,7.0,-9.4,17.72,NNW,343,0.0,0.0,46,0.00,,,0.00,WeatherTracker,2013-01-07 06:21:00,
2013-01-07 01:26:00,7.0,-9.4,17.72,NNW,343,0.0,0.0,46,0.00,,,0.00,WeatherTracker,2013-01-07 06:26:00,
2013-01-07 01:31:00,7.0,-9.4,17.72,NNW,343,0.0,0.0,46,0.00,,,0.00,WeatherTracker,2013-01-07 06:31:00,
2013-01-07 01:36:00,7.0,-9.4,17.72,NNW,343,0.0,0.0,46,0.00,,,0.00,WeatherTracker,2013-01-07 06:36:00,
2013-01-07 01:41:00,7.0,-9.4,17.72,NNW,343,0.0,0.0,46,0.00,,,0.00,WeatherTracker,2013-01-07 06:41:00,
2013-01-07 01:46:00,7.0,-9.4,17.72,NNW,343,0.0,0.0,46,0.00,,,0.00,WeatherTracker,2013-01-07 06:46:00,
2013-01-07 01:51:00,7.0,-9.4,17.72,NNW,343,0.0,0.0,46,0.00,,,0.00,WeatherTracker,2013-01-07 06:51:00,
2013-01-07 01:56:00,7.0,-9.4,17.72,NNW,343,0.0,0.0,46,0.00,,,0.00,WeatherTracker,2013-01-07 06:56:00,
2013-01-07 02:01:00,6.8,-9.5,17.72,NNW,343,0.0,0.0,46,0.00,,,0.00,WeatherTracker,2013-01-07 07:01:00,
2013-01-07 02:06:00,6.8,-9.5,17.72,NNW,343,0.0,0.0,46,0.00,,,0.00,WeatherTracker,2013-01-07 07:06:00,
2013-01-07 02:11:00,6.8,-9.5,17.72,NNW,343,0.0,0.0,46,0.00,,,0.00,WeatherTracker,2013-01-07 07:11:00,
2013-01-07 02:16:00,6.8,-9.5,17.72,NNW,343,0.0,0.0,46,0.00,,,0.00,WeatherTracker,2013-01-07 07:16:00,
2013-01-07 02:21:00,6.8,-9.5,17.72,NNW,343,0.0,0.0,46,0.00,,,0.00,WeatherTracker,2013-01-07 07:21:00,
2013-01-07 02:26:00,6.8,-9.5,17.72,NNW,343,0.0,0.0,46,0.00,,,0.00,WeatherTracker,2013-01-07 07:26:00,
2013-01-07 02:31:00,6.8,-9.5,17.72,NNW,343,0.0,0.0,46,0.00,,,0.00,WeatherTracker,2013-01-07 07:31:00,
2013-01-07 02:36:00,6.6,-9.7,17.72,NNW,343,0.0,0.0,46,0.00,,,0.00,WeatherTracker,2013-01-07 07:36:00,
2013-01-07 02:41:00,6.8,-9.5,17.72,NNW,343,0.0,0.0,46,0.00,,,0.00,WeatherTracker,2013-01-07 07:41:00,
2013-01-07 02:46:00,6.8,-9.5,17.72,NNW,343,0.0,0.0,46,0.00,,,0.00,WeatherTracker,2013-01-07 07:46:00,
2013-01-07 02:51:00,6.8,-9.5,17.72,NNW,343,0.0,0.0,46,0.00,,,0.00,WeatherTracker,2013-01-07 07:51:00,
2013-01-07 02:56:00,7.0,-9.4,17.72,NNW,343,0.0,0.0,46,0.00,,,0.00,WeatherTracker,2013-01-07 07:56:00,
2013-01-07 03:01:00,7.0,-9.4,17.72,NNW,343,0.0,0.0,46,0.00,,,0.00,WeatherTracker,2013-01-07 08:01:00,
2013-01-07 03:06:00,7.2,-9.2,17.72,NNW,343,0.0,0.0,46,0.00,,,0.00,WeatherTracker,2013-01-07 08:06:00,
2013-01-07 03:11:00,7.3,-9.1,17.72,NNW,343,0.0,0.0,46,0.00,,,0.00,WeatherTracker,2013-01-07 08:11:00,
2013-01-07 03:16:00,7.5,-8.9,17.72,NNW,343,0.0,0.0,46,0.00,,,0.00,WeatherTracker,2013-01-07 08:16:00,
2013-01-07 03:21:00,7.7,-8.7,17.72,NNW,343,0.0,0.0,46,0.00,,,0.00,WeatherTracker,2013-01-07 08:21:00,
2013-01-07 03:26:00,7.9,-8.6,17.72,WSW,254,0.0,0.0,46,0.00,,,0.00,WeatherTracker,2013-01-07 08:26:00,
2013-01-07 03:31:00,7.9,-8.6,17.72,WSW,247,0.0,0.0,46,0.00,,,0.00,WeatherTracker,2013-01-07 08:31:00,
2013-01-07 03:36:00,8.1,-8.4,17.72,WSW,248,0.0,0.0,46,0.00,,,0.00,WeatherTracker,2013-01-07 08:36:00,
2013-01-07 03:41:00,8.1,-8.4,17.72,WSW,248,0.0,0.0,46,0.00,,,0.00,WeatherTracker,2013-01-07 08:41:00,
2013-01-07 03:46:00,8.2,-8.2,17.72,SW,218,0.0,0.0,46,0.00,,,0.00,WeatherTracker,2013-01-07 08:46:00,
2013-01-07 03:51:00,8.4,-8.1,17.72,SW,218,0.0,0.0,46,0.00,,,0.00,WeatherTracker,2013-01-07 08:51:00,
2013-01-07 03:56:00,8.4,-8.1,17.72,WNW,296,2.0,0.0,46,0.00,,,0.00,WeatherTracker,2013-01-07 08:56:00,
2013-01-07 04:01:00,8.6,-7.9,17.72,SW,230,0.0,3.0,46,0.00,,,0.00,WeatherTracker,2013-01-07 09:01:00,
2013-01-07 04:06:00,8.8,-7.7,17.72,SW,230,0.0,0.0,46,0.00,,,0.00,WeatherTracker,2013-01-07 09:06:00,
2013-01-07 04:11:00,9.1,-7.4,17.72,SW,230,0.0,0.0,46,0.00,,,0.00,WeatherTracker,2013-01-07 09:11:00,
2013-01-07 04:16:00,9.1,-7.4,17.72,West,269,0.0,0.0,46,0.00,,,0.00,WeatherTracker,2013-01-07 09:16:00,
2013-01-07 04:21:00,9.5,-7.1,17.72,WNW,298,0.0,0.0,46,0.00,,,0.00,WeatherTracker,2013-01-07 09:21:00,
2013-01-07 04:26:00,9.5,-7.1,17.72,WNW,298,0.0,0.0,46,0.00,,,0.00,WeatherTracker,2013-01-07 09:26:00,
2013-01-07 04:31:00,9.7,-6.9,17.72,West,279,0.0,0.0,46,0.00,,,0.00,WeatherTracker,2013-01-07 09:31:00,
2013-01-07 04:36:00,9.9,-6.7,17.72,South,181,0.0,0.0,46,0.00,,,0.00,WeatherTracker,2013-01-07 09:36:00,
2013-01-07 04:41:00,10.0,-6.6,17.72,SSW,212,0.0,0.0,46,0.00,,,0.00,WeatherTracker,2013-01-07 09:41:00,
2013-01-07 04:46:00,10.0,-6.6,17.72,WSW,251,0.0,0.0,46,0.00,,,0.00,WeatherTracker,2013-01-07 09:46:00,
2013-01-07 04:51:00,10.2,-6.4,17.72,WSW,252,0.0,0.0,46,0.00,,,0.00,WeatherTracker,2013-01-07 09:51:00,
2013-01-07 04:56:00,10.2,-6.4,17.72,WSW,252,0.0,0.0,46,0.00,,,0.00,WeatherTracker,2013-01-07 09:56:00,
2013-01-07 05:01:00,10.2,-6.4,17.72,WSW,238,0.0,0.0,46,0.00,,,0.00,WeatherTracker,2013-01-07 10:01:00,
2013-01-07 05:06:00,10.4,-6.2,17.72,WSW,238,0.0,0.0,46,0.00,,,0.00,WeatherTracker,2013-01-07 10:06:00,
2013-01-07 05:11:00,10.4,-6.2,17.72,SE,137,0.0,0.0,46,0.00,,,0.00,WeatherTracker,2013-01-07 10:11:00,
2013-01-07 05:16:00,10.4,-6.2,17.72,North,0,0.0,0.0,46,0.00,,,0.00,WeatherTracker,2013-01-07 10:16:00,
2013-01-07 05:21:00,10.6,-6.1,17.72,ENE,75,0.0,0.0,46,0.00,,,0.00,WeatherTracker,2013-01-07 10:21:00,
2013-01-07 05:26:00,10.8,-5.9,17.72,SW,229,0.0,0.0,46,0.00,,,0.00,WeatherTracker,2013-01-07 10:26:00,
2013-01-07 05:31:00,10.9,-5.7,17.72,SW,226,0.0,3.0,46,0.00,,,0.00,WeatherTracker,2013-01-07 10:31:00,
2013-01-07 05:36:00,10.9,-5.7,17.72,SE,126,0.0,0.0,46,0.00,,,0.00,WeatherTracker,2013-01-07 10:36:00,
2013-01-07 05:41:00,11.1,-5.6,17.72,ESE,118,0.0,0.0,46,0.00,,,0.00,WeatherTracker,2013-01-07 10:41:00,
2013-01-07 05:46:00,11.3,-5.4,17.72,SSW,210,0.0,0.0,46,0.00,,,0.00,WeatherTracker,2013-01-07 10:46:00,
2013-01-07 05:51:00,11.5,-5.2,17.72,SW,214,0.0,4.0,46,0.00,,,0.00,WeatherTracker,2013-01-07 10:51:00,
2013-01-07 05:56:00,11.7,-5.1,17.72,South,180,0.0,0.0,46,0.00,,,0.00,WeatherTracker,2013-01-07 10:56:00,
2013-01-07 06:01:00,12.0,-4.7,17.72,ENE,68,0.0,0.0,46,0.00,,,0.00,WeatherTracker,2013-01-07 11:01:00,
2013-01-07 06:06:00,12.2,-4.6,17.72,SSW,204,2.0,0.0,46,0.00,,,0.00,WeatherTracker,2013-01-07 11:06:00,
2013-01-07 06:11:00,12.6,-4.2,17.72,WSW,247,0.0,2.0,46,0.00,,,0.00,WeatherTracker,2013-01-07 11:11:00,
2013-01-07 06:16:00,12.7,-4.1,17.72,SE,124,0.0,3.0,46,0.00,,,0.00,WeatherTracker,2013-01-07 11:16:00,
2013-01-07 06:21:00,12.9,-3.9,17.72,South,182,0.0,2.0,46,0.00,,,0.00,WeatherTracker,2013-01-07 11:21:00,
2013-01-07 06:26:00,13.1,-3.8,17.72,WSW,257,0.0,0.0,46,0.00,,,0.00,WeatherTracker,2013-01-07 11:26:00,
2013-01-07 06:31:00,13.3,-3.6,17.72,WSW,247,0.0,0.0,46,0.00,,,0.00,WeatherTracker,2013-01-07 11:31:00,
2013-01-07 06:36:00,13.5,-3.4,17.72,WSW,244,3.0,3.0,46,0.00,,,0.00,WeatherTracker,2013-01-07 11:36:00,
2013-01-07 06:41:00,13.6,-3.3,17.72,SW,216,0.0,0.0,46,0.00,,,0.00,WeatherTracker,2013-01-07 11:41:00,
2013-01-07 06:46:00,13.6,-3.3,17.72,South,183,0.0,0.0,46,0.00,,,0.00,WeatherTracker,2013-01-07 11:46:00,
2013-01-07 06:51:00,13.8,-3.1,17.72,SW,233,2.0,3.0,46,0.00,,,0.00,WeatherTracker,2013-01-07 11:51:00,
2013-01-07 06:56:00,13.8,-3.1,17.72,West,265,0.0,0.0,46,0.00,,,0.00,WeatherTracker,2013-01-07 11:56:00,
2013-01-07 07:01:00,13.8,-3.1,17.72,SSE,163,0.0,0.0,46,0.00,,,0.00,WeatherTracker,2013-01-07 12:01:00,
2013-01-07 07:06:00,14.2,2.5,17.72,WNW,283,3.0,0.0,59,0.00,,,0.00,WeatherTracker,2013-01-07 12:06:00,
2013-01-07 07:11:00,14.4,2.7,17.72,SSW,201,0.0,0.0,59,0.00,,,0.00,WeatherTracker,2013-01-07 12:11:00,
2013-01-07 07:16:00,14.4,2.7,17.72,SW,219,0.0,3.0,59,0.00,,,0.00,WeatherTracker,2013-01-07 12:16:00,
2013-01-07 07:21:00,14.7,3.0,17.72,South,186,2.0,4.0,59,0.00,,,0.00,WeatherTracker,2013-01-07 12:21:00,
2013-01-07 07:26:00,15.1,3.7,17.72,WSW,255,4.0,4.0,60,0.00,,,0.00,WeatherTracker,2013-01-07 12:26:00,
2013-01-07 07:31:00,15.3,3.9,17.72,WSW,251,0.0,0.0,60,0.00,,,0.00,WeatherTracker,2013-01-07 12:31:00,
2013-01-07 07:36:00,15.4,4.1,17.72,SSW,208,0.0,4.0,60,0.00,,,0.00,WeatherTracker,2013-01-07 12:36:00,
2013-01-07 07:41:00,15.4,4.1,17.72,West,259,0.0,0.0,60,0.00,,,0.00,WeatherTracker,2013-01-07 12:41:00,
2013-01-07 07:46:00,15.8,4.4,17.72,NE,55,0.0,0.0,60,0.00,,,0.00,WeatherTracker,2013-01-07 12:46:00,
2013-01-07 07:51:00,16.0,4.6,17.72,NE,48,3.0,3.0,60,0.00,,,0.00,WeatherTracker,2013-01-07 12:51:00,
2013-01-07 07:56:00,16.2,4.7,17.72,SW,224,4.0,5.0,60,0.00,,,0.00,WeatherTracker,2013-01-07 12:56:00,
2013-01-07 08:01:00,16.3,5.3,17.72,South,179,0.0,0.0,61,0.00,,,0.00,WeatherTracker,2013-01-07 13:01:00,
2013-01-07 08:06:00,16.5,5.4,17.72,SSW,208,3.0,3.0,61,0.00,,,0.00,WeatherTracker,2013-01-07 13:06:00,
2013-01-07 08:11:00,16.7,5.6,17.72,SW,234,4.0,0.0,61,0.00,,,0.00,WeatherTracker,2013-01-07 13:11:00,
2013-01-07 08:16:00,16.9,5.8,17.72,SSE,155,2.0,3.0,61,0.00,,,0.00,WeatherTracker,2013-01-07 13:16:00,
2013-01-07 08:21:00,17.1,6.0,17.72,South,174,0.0,0.0,61,0.00,,,0.00,WeatherTracker,2013-01-07 13:21:00,
2013-01-07 08:26:00,17.1,6.0,17.72,WSW,250,0.0,4.0,61,0.00,,,0.00,WeatherTracker,2013-01-07 13:26:00,
2013-01-07 08:31:00,17.2,6.1,17.72,WSW,243,3.0,0.0,61,0.00,,,0.00,WeatherTracker,2013-01-07 13:31:00,
2013-01-07 08:36:00,17.4,6.3,17.72,West,266,2.0,0.0,61,0.00,,,0.00,WeatherTracker,2013-01-07 13:36:00,
2013-01-07 08:41:00,17.6,6.5,17.72,South,185,3.0,0.0,61,0.00,,,0.00,WeatherTracker,2013-01-07 13:41:00,
2013-01-07 08:46:00,17.8,6.6,17.72,WSW,239,3.0,3.0,61,0.00,,,0.00,WeatherTracker,2013-01-07 13:46:00,
2013-01-07 08:51:00,17.8,6.6,17.72,South,188,2.0,4.0,61,0.00,,,0.00,WeatherTracker,2013-01-07 13:51:00,
2013-01-07 08:56:00,18.0,6.8,17.72,SSW,195,4.0,4.0,61,0.00,,,0.00,WeatherTracker,2013-01-07 13:56:00,
2013-01-07 09:01:00,18.1,6.6,17.72,ESE,105,5.0,0.0,60,0.00,,,0.00,WeatherTracker,2013-01-07 14:01:00,
2013-01-07 09:06:00,18.3,6.8,17.72,West,262,3.0,3.0,60,0.00,,,0.00,WeatherTracker,2013-01-07 14:06:00,
2013-01-07 09:11:00,18.7,7.1,17.72,SW,232,3.0,6.0,60,0.00,,,0.00,WeatherTracker,2013-01-07 14:11:00,
2013-01-07 09:16:00,18.9,7.3,17.72,SW,214,4.0,5.0,60,0.00,,,0.00,WeatherTracker,2013-01-07 14:16:00,
2013-01-07 09:21:00,19.0,7.1,17.72,South,177,4.0,5.0,59,0.00,,,0.00,WeatherTracker,2013-01-07 14:21:00,
2013-01-07 09:26:00,19.2,7.3,17.72,SW,230,5.0,5.0,59,0.00,,,0.00,WeatherTracker,2013-01-07 14:26:00,
2013-01-07 09:31:00,19.4,7.4,17.72,SW,236,5.0,5.0,59,0.00,,,0.00,WeatherTracker,2013-01-07 14:31:00,
2013-01-07 09:36:00,19.8,7.4,17.72,SW,225,3.0,5.0,58,0.00,,,0.00,WeatherTracker,2013-01-07 14:36:00,
2013-01-07 09:41:00,19.9,7.6,17.72,SW,234,3.0,8.0,58,0.00,,,0.00,WeatherTracker,2013-01-07 14:41:00,
2013-01-07 09:46:00,20.1,7.4,17.72,WSW,237,5.0,8.0,57,0.00,,,0.00,WeatherTracker,2013-01-07 14:46:00,
2013-01-07 09:51:00,20.3,7.5,17.72,South,187,4.0,4.0,57,0.00,,,0.00,WeatherTracker,2013-01-07 14:51:00,
2013-01-07 09:56:00,20.7,7.9,17.72,SW,219,4.0,4.0,57,0.00,,,0.00,WeatherTracker,2013-01-07 14:56:00,
2013-01-07 10:01:00,21.0,7.8,17.72,WSW,251,4.0,10.0,56,0.00,,,0.00,WeatherTracker,2013-01-07 15:01:00,
2013-01-07 10:06:00,21.2,8.0,17.72,NNE,16,4.0,4.0,56,0.00,,,0.00,WeatherTracker,2013-01-07 15:06:00,
2013-01-07 10:11:00,21.6,7.9,17.72,SSE,154,5.0,5.0,55,0.00,,,0.00,WeatherTracker,2013-01-07 15:11:00,
2013-01-07 10:16:00,21.9,8.3,17.72,WSW,248,4.0,7.0,55,0.00,,,0.00,WeatherTracker,2013-01-07 15:16:00,
2013-01-07 10:21:00,22.3,8.2,17.72,South,180,5.0,6.0,54,0.00,,,0.00,WeatherTracker,2013-01-07 15:21:00,
2013-01-07 10:26:00,22.6,8.1,17.72,West,266,5.0,5.0,53,0.00,,,0.00,WeatherTracker,2013-01-07 15:26:00,
2013-01-07 10:31:00,23.2,8.2,17.72,SW,218,8.0,8.0,52,0.00,,,0.00,WeatherTracker,2013-01-07 15:31:00,
2013-01-07 10:36:00,23.4,8.4,17.72,WSW,251,4.0,4.0,52,0.00,,,0.00,WeatherTracker,2013-01-07 15:36:00,
2013-01-07 10:41:00,23.5,8.1,17.72,WSW,255,5.0,9.0,51,0.00,,,0.00,WeatherTracker,2013-01-07 15:41:00,
2013-01-07 10:46:00,23.9,8.4,17.72,WSW,237,5.0,6.0,51,0.00,,,0.00,WeatherTracker,2013-01-07 15:46:00,
2013-01-07 10:51:00,24.3,8.3,17.72,SSW,204,6.0,8.0,50,0.00,,,0.00,WeatherTracker,2013-01-07 15:51:00,
2013-01-07 10:56:00,24.6,8.7,17.72,West,262,6.0,6.0,50,0.00,,,0.00,WeatherTracker,2013-01-07 15:56:00,
2013-01-07 11:01:00,25.0,8.5,17.72,South,180,4.0,8.0,49,0.00,,,0.00,WeatherTracker,2013-01-07 16:01:00,
2013-01-07 11:06:00,25.3,8.4,17.72,WSW,251,6.0,8.0,48,0.00,,,0.00,WeatherTracker,2013-01-07 16:06:00,
2013-01-07 11:11:00,25.7,7.8,17.72,SW,226,6.0,6.0,46,0.00,,,0.00,WeatherTracker,2013-01-07 16:11:00,
2013-01-07 11:16:00,26.1,7.7,17.72,SW,231,6.0,8.0,45,0.00,,,0.00,WeatherTracker,2013-01-07 16:16:00,
2013-01-07 11:21:00,26.2,7.8,17.72,SW,234,7.0,8.0,45,0.00,,,0.00,WeatherTracker,2013-01-07 16:21:00,
2013-01-07 11:26:00,26.6,7.7,17.72,SSW,210,8.0,8.0,44,0.00,,,0.00,WeatherTracker,2013-01-07 16:26:00,
2013-01-07 11:31:00,26.8,7.8,17.72,SSW,195,4.0,6.0,44,0.00,,,0.00,WeatherTracker,2013-01-07 16:31:00,
2013-01-07 11:36:00,27.0,8.0,17.72,SSE,160,4.0,10.0,44,0.00,,,0.00,WeatherTracker,2013-01-07 16:36:00,
2013-01-07 11:41:00,27.1,8.2,17.72,SW,224,6.0,12.0,44,0.00,,,0.00,WeatherTracker,2013-01-07 16:41:00,
2013-01-07 11:46:00,27.3,8.3,17.72,WSW,257,7.0,7.0,44,0.00,,,0.00,WeatherTracker,2013-01-07 16:46:00,
2013-01-07 11:51:00,27.5,8.0,17.72,SSW,210,2.0,3.0,43,0.00,,,0.00,WeatherTracker,2013-01-07 16:51:00,
2013-01-07 11:56:00,27.9,8.3,17.72,SSE,154,8.0,11.0,43,0.00,,,0.00,WeatherTracker,2013-01-07 16:56:00,
2013-01-07 12:01:00,28.0,7.9,17.72,SW,233,6.0,8.0,42,0.00,,,0.00,WeatherTracker,2013-01-07 17:01:00,
2013-01-07 12:06:00,28.2,8.1,17.72,WSW,253,9.0,9.0,42,0.00,,,0.00,WeatherTracker,2013-01-07 17:06:00,
2013-01-07 12:11:00,28.6,8.4,17.72,SSE,158,8.0,8.0,42,0.00,,,0.00,WeatherTracker,2013-01-07 17:11:00,
2013-01-07 12:16:00,28.8,8.6,17.72,WSW,239,8.0,8.0,42,0.00,,,0.00,WeatherTracker,2013-01-07 17:16:00,
2013-01-07 12:21:00,29.1,8.9,17.72,WSW,254,4.0,8.0,42,0.00,,,0.00,WeatherTracker,2013-01-07 17:21:00,
2013-01-07 12:26:00,29.3,9.1,17.72,WSW,238,8.0,10.0,42,0.00,,,0.00,WeatherTracker,2013-01-07 17:26:00,
2013-01-07 12:31:00,29.5,9.2,17.72,WSW,247,9.0,9.0,42,0.00,,,0.00,WeatherTracker,2013-01-07 17:31:00,
2013-01-07 12:36:00,29.8,9.6,17.72,WSW,239,7.0,7.0,42,0.00,,,0.00,WeatherTracker,2013-01-07 17:36:00,
2013-01-07 12:41:00,30.0,9.7,17.72,West,270,7.0,7.0,42,0.00,,,0.00,WeatherTracker,2013-01-07 17:41:00,
2013-01-07 12:46:00,30.2,9.9,17.72,SW,226,8.0,11.0,42,0.00,,,0.00,WeatherTracker,2013-01-07 17:46:00,
2013-01-07 12:51:00,30.4,9.5,17.72,WSW,250,6.0,10.0,41,0.00,,,0.00,WeatherTracker,2013-01-07 17:51:00,
2013-01-07 12:56:00,30.4,9.5,17.72,SW,227,6.0,6.0,41,0.00,,,0.00,WeatherTracker,2013-01-07 17:56:00,
2013-01-07 13:01:00,30.6,9.7,17.72,SSW,205,3.0,3.0,41,0.00,,,0.00,WeatherTracker,2013-01-07 18:01:00,
2013-01-07 13:06:00,30.6,9.7,17.72,SW,227,7.0,7.0,41,0.00,,,0.00,WeatherTracker,2013-01-07 18:06:00,
2013-01-07 13:11:00,30.7,9.9,17.72,SSW,192,5.0,0.0,41,0.00,,,0.00,WeatherTracker,2013-01-07 18:11:00,
2013-01-07 13:16:00,30.9,10.0,17.72,WSW,253,6.0,9.0,41,0.00,,,0.00,WeatherTracker,2013-01-07 18:16:00,
2013-01-07 13:21:00,31.1,10.2,17.72,WSW,257,8.0,8.0,41,0.00,,,0.00,WeatherTracker,2013-01-07 18:21:00,
2013-01-07 13:26:00,31.3,10.3,17.72,WSW,257,5.0,8.0,41,0.00,,,0.00,WeatherTracker,2013-01-07 18:26:00,
2013-01-07 13:31:00,31.3,10.3,17.72,NNW,339,6.0,6.0,41,0.00,,,0.00,WeatherTracker,2013-01-07 18:31:00,
2013-01-07 13:36:00,31.5,10.5,17.72,SW,218,4.0,8.0,41,0.00,,,0.00,WeatherTracker,2013-01-07 18:36:00,
2013-01-07 13:41:00,31.6,10.7,17.72,WSW,253,4.0,6.0,41,0.00,,,0.00,WeatherTracker,2013-01-07 18:41:00,
2013-01-07 13:46:00,31.8,10.8,17.72,SSW,209,3.0,8.0,41,0.00,,,0.00,WeatherTracker,2013-01-07 18:46:00,
2013-01-07 13:51:00,32.0,11.0,17.72,SE,140,6.0,6.0,41,0.00,,,0.00,WeatherTracker,2013-01-07 18:51:00,
2013-01-07 13:56:00,32.2,11.2,17.72,SW,214,7.0,11.0,41,0.00,,,0.00,WeatherTracker,2013-01-07 18:56:00,
2013-01-07 14:01:00,32.4,11.3,17.72,SSW,211,6.0,6.0,41,0.00,,,0.00,WeatherTracker,2013-01-07 19:01:00,
2013-01-07 14:06:00,32.5,11.5,17.72,WNW,289,4.0,4.0,41,0.00,,,0.00,WeatherTracker,2013-01-07 19:06:00,
2013-01-07 14:11:00,32.7,11.6,17.72,SSW,192,6.0,10.0,41,0.00,,,0.00,WeatherTracker,2013-01-07 19:11:00,
2013-01-07 14:16:00,32.9,11.8,17.72,SSW,210,6.0,6.0,41,0.00,,,0.00,WeatherTracker,2013-01-07 19:16:00,
2013-01-07 14:21:00,33.1,12.0,17.72,SSE,158,4.0,8.0,41,0.00,,,0.00,WeatherTracker,2013-01-07 19:21:00,
2013-01-07 14:26:00,33.1,12.0,17.72,SW,225,4.0,10.0,41,0.00,,,0.00,WeatherTracker,2013-01-07 19:26:00,
2013-01-07 14:31:00,33.1,12.0,17.72,WNW,301,4.0,5.0,41,0.00,,,0.00,WeatherTracker,2013-01-07 19:31:00,
2013-01-07 14:36:00,33.1,12.0,17.72,WNW,284,4.0,6.0,41,0.00,,,0.00,WeatherTracker,2013-01-07 19:36:00,
2013-01-07 14:41:00,33.1,12.0,17.72,SSW,207,3.0,8.0,41,0.00,,,0.00,WeatherTracker,2013-01-07 19:41:00,
2013-01-07 14:46:00,33.1,12.0,17.72,SW,232,9.0,9.0,41,0.00,,,0.00,WeatherTracker,2013-01-07 19:46:00,
2013-01-07 14:51:00,33.1,12.0,17.72,WSW,250,5.0,8.0,41,0.00,,,0.00,WeatherTracker,2013-01-07 19:51:00,
2013-01-07 14:56:00,33.1,12.0,17.72,SSW,194,4.0,4.0,41,0.00,,,0.00,WeatherTracker,2013-01-07 19:56:00,
2013-01-07 15:01:00,33.1,12.0,17.72,WSW,253,8.0,8.0,41,0.00,,,0.00,WeatherTracker,2013-01-07 20:01:00,
2013-01-07 15:06:00,33.1,12.0,17.72,SE,143,4.0,5.0,41,0.00,,,0.00,WeatherTracker,2013-01-07 20:06:00,
2013-01-07 15:11:00,33.1,12.0,17.72,SSW,212,6.0,8.0,41,0.00,,,0.00,WeatherTracker,2013-01-07 20:11:00,
2013-01-07 15:16:00,33.1,12.0,17.72,SW,218,4.0,6.0,41,0.00,,,0.00,WeatherTracker,2013-01-07 20:16:00,
2013-01-07 15:19:00,33.1,12.0,17.72,SSW,208,6.0,6.0,41,0.00,,,0.00,WeatherTracker,2013-01-07 20:19:00,
2013-01-07 15:24:00,33.1,12.0,17.72,WSW,256,4.0,4.0,41,0.00,,,0.00,WeatherTracker,2013-01-07 20:24:00,
2013-01-07 15:29:00,33.1,12.0,17.72,SSW,200,4.0,4.0,41,0.00,,,0.00,WeatherTracker,2013-01-07 20:29:00,
2013-01-07 15:34:00,33.3,12.1,17.72,WSW,245,5.0,5.0,41,0.00,,,0.00,WeatherTracker,2013-01-07 20:34:00,
2013-01-07 15:39:00,33.3,12.1,17.72,SE,144,4.0,4.0,41,0.00,,,0.00,WeatherTracker,2013-01-07 20:39:00,
2013-01-07 15:44:00,33.4,12.3,17.72,WSW,251,6.0,6.0,41,0.00,,,0.00,WeatherTracker,2013-01-07 20:44:00,
2013-01-07 15:49:00,33.4,12.3,17.72,SSW,197,5.0,5.0,41,0.00,,,0.00,WeatherTracker,2013-01-07 20:49:00,
2013-01-07 15:54:00,33.4,12.3,17.72,South,180,8.0,8.0,41,0.00,,,0.00,WeatherTracker,2013-01-07 20:54:00,
2013-01-07 15:59:00,33.4,12.3,17.72,SW,236,4.0,7.0,41,0.00,,,0.00,WeatherTracker,2013-01-07 20:59:00,
2013-01-07 16:04:00,33.4,12.8,17.72,WSW,247,0.0,6.0,42,0.00,,,0.00,WeatherTracker,2013-01-07 21:04:00,
2013-01-07 16:09:00,33.4,12.8,17.72,West,261,6.0,6.0,42,0.00,,,0.00,WeatherTracker,2013-01-07 21:09:00,
2013-01-07 16:14:00,33.4,12.8,17.72,SSW,212,6.0,6.0,42,0.00,,,0.00,WeatherTracker,2013-01-07 21:14:00,
2013-01-07 16:19:00,33.3,12.7,17.72,West,260,4.0,4.0,42,0.00,,,0.00,WeatherTracker,2013-01-07 21:19:00,
2013-01-07 16:24:00,33.3,12.7,17.72,SSW,213,5.0,5.0,42,0.00,,,0.00,WeatherTracker,2013-01-07 21:24:00,
2013-01-07 16:29:00,33.1,12.5,17.72,WSW,241,5.0,11.0,42,0.00,,,0.00,WeatherTracker,2013-01-07 21:29:00,
2013-01-07 16:34:00,33.1,12.5,17.72,SW,230,2.0,2.0,42,0.00,,,0.00,WeatherTracker,2013-01-07 21:34:00,
2013-01-07 16:39:00,32.9,12.4,17.72,WSW,237,5.0,10.0,42,0.00,,,0.00,WeatherTracker,2013-01-07 21:39:00,
2013-01-07 16:44:00,32.7,12.2,17.72,SSW,205,0.0,0.0,42,0.00,,,0.00,WeatherTracker,2013-01-07 21:44:00,
2013-01-07 16:49:00,32.7,12.2,17.72,West,264,3.0,3.0,42,0.00,,,0.00,WeatherTracker,2013-01-07 21:49:00,
2013-01-07 16:54:00,32.5,12.0,17.72,WSW,243,5.0,5.0,42,0.00,,,0.00,WeatherTracker,2013-01-07 21:54:00,
2013-01-07 16:59:00,32.5,12.0,17.72,SW,223,4.0,7.0,42,0.00,,,0.00,WeatherTracker,2013-01-07 21:59:00,
2013-01-07 17:04:00,32.5,12.0,17.72,East,93,4.0,6.0,42,0.00,,,0.00,WeatherTracker,2013-01-07 22:04:00,
2013-01-07 17:09:00,32.4,11.9,17.72,South,180,0.0,0.0,42,0.00,,,0.00,WeatherTracker,2013-01-07 22:09:00,
2013-01-07 17:14:00,32.2,12.2,17.72,West,268,0.0,5.0,43,0.00,,,0.00,WeatherTracker,2013-01-07 22:14:00,
2013-01-07 17:19:00,32.2,12.2,17.72,South,189,3.0,4.0,43,0.00,,,0.00,WeatherTracker,2013-01-07 22:19:00,
2013-01-07 17:24:00,32.0,12.1,17.72,SSW,201,0.0,6.0,43,0.00,,,0.00,WeatherTracker,2013-01-07 22:24:00,
2013-01-07 17:29:00,31.8,11.9,17.72,South,182,0.0,3.0,43,0.00,,,0.00,WeatherTracker,2013-01-07 22:29:00,
2013-01-07 17:34:00,31.6,11.7,17.72,WSW,248,4.0,4.0,43,0.00,,,0.00,WeatherTracker,2013-01-07 22:34:00,
2013-01-07 17:39:00,31.3,11.4,17.72,South,178,3.0,3.0,43,0.00,,,0.00,WeatherTracker,2013-01-07 22:39:00,
2013-01-07 17:44:00,31.1,11.2,17.72,South,179,3.0,3.0,43,0.00,,,0.00,WeatherTracker,2013-01-07 22:44:00,
2013-01-07 17:49:00,30.9,11.1,17.72,West,259,2.0,2.0,43,0.00,,,0.00,WeatherTracker,2013-01-07 22:49:00,
2013-01-07 17:54:00,30.7,11.4,17.72,SE,142,3.0,3.0,44,0.00,,,0.00,WeatherTracker,2013-01-07 22:54:00,
2013-01-07 17:59:00,30.6,11.3,17.72,West,271,3.0,3.0,44,0.00,,,0.00,WeatherTracker,2013-01-07 22:59:00,
2013-01-07 18:04:00,30.4,11.1,17.72,SSW,213,0.0,0.0,44,0.00,,,0.00,WeatherTracker,2013-01-07 23:04:00,
2013-01-07 18:09:00,30.2,10.9,17.72,SW,236,5.0,5.0,44,0.00,,,0.00,WeatherTracker,2013-01-07 23:09:00,
2013-01-07 18:14:00,30.0,11.3,17.72,SW,233,4.0,4.0,45,0.00,,,0.00,WeatherTracker,2013-01-07 23:14:00,
2013-01-07 18:19:00,30.0,11.3,17.72,West,263,4.0,4.0,45,0.00,,,0.00,WeatherTracker,2013-01-07 23:19:00,
2013-01-07 18:24:00,29.8,11.1,17.72,SSW,199,6.0,8.0,45,0.00,,,0.00,WeatherTracker,2013-01-07 23:24:00,
2013-01-07 18:29:00,29.7,11.0,17.72,SW,229,4.0,5.0,45,0.00,,,0.00,WeatherTracker,2013-01-07 23:29:00,
2013-01-07 18:34:00,29.5,10.8,17.72,WSW,251,3.0,4.0,45,0.00,,,0.00,WeatherTracker,2013-01-07 23:34:00,
2013-01-07 18:39:00,29.5,10.8,17.72,SSW,211,5.0,6.0,45,0.00,,,0.00,WeatherTracker,2013-01-07 23:39:00,
2013-01-07 18:44:00,29.5,11.3,17.72,SW,226,3.0,4.0,46,0.00,,,0.00,WeatherTracker,2013-01-07 23:44:00,
2013-01-07 18:49:00,29.3,11.1,17.72,SSW,204,3.0,6.0,46,0.00,,,0.00,WeatherTracker,2013-01-07 23:49:00,
2013-01-07 18:54:00,29.3,11.1,17.72,WSW,239,0.0,0.0,46,0.00,,,0.00,WeatherTracker,2013-01-07 23:54:00,
2013-01-07 18:59:00,29.3,11.1,17.72,WSW,245,5.0,5.0,46,0.00,,,0.00,WeatherTracker,2013-01-07 23:59:00,
2013-01-07 19:04:00,29.3,11.6,17.72,WSW,245,4.0,8.0,47,0.00,,,0.00,WeatherTracker,2013-01-08 00:04:00,
2013-01-07 19:09:00,29.3,11.6,17.72,South,175,4.0,0.0,47,0.00,,,0.00,WeatherTracker,2013-01-08 00:09:00,
2013-01-07 19:14:00,29.1,11.4,17.72,WSW,248,3.0,6.0,47,0.00,,,0.00,WeatherTracker,2013-01-08 00:14:00,
2013-01-07 19:19:00,29.1,11.4,17.72,WSW,252,6.0,6.0,47,0.00,,,0.00,WeatherTracker,2013-01-08 00:19:00,
2013-01-07 19:24:00,28.9,11.3,17.72,WSW,240,0.0,4.0,47,0.00,,,0.00,WeatherTracker,2013-01-08 00:24:00,
2013-01-07 19:29:00,28.9,11.7,17.72,SSW,193,2.0,0.0,48,0.00,,,0.00,WeatherTracker,2013-01-08 00:29:00,
2013-01-07 19:34:00,28.9,11.7,17.72,SSW,192,0.0,3.0,48,0.00,,,0.00,WeatherTracker,2013-01-08 00:34:00,
2013-01-07 19:39:00,28.9,11.7,17.72,West,260,3.0,5.0,48,0.00,,,0.00,WeatherTracker,2013-01-08 00:39:00,
2013-01-07 19:44:00,28.9,12.2,17.72,SSW,208,6.0,6.0,49,0.00,,,0.00,WeatherTracker,2013-01-08 00:44:00,
2013-01-07 19:49:00,28.8,12.0,17.72,WSW,250,4.0,4.0,49,0.00,,,0.00,WeatherTracker,2013-01-08 00:49:00,
2013-01-07 19:54:00,28.9,12.2,17.72,West,260,3.0,0.0,49,0.00,,,0.00,WeatherTracker,2013-01-08 00:54:00,
2013-01-07 19:59:00,28.9,12.2,17.72,WSW,249,4.0,4.0,49,0.00,,,0.00,WeatherTracker,2013-01-08 00:59:00,
2013-01-07 20:04:00,28.9,12.7,17.72,WSW,254,3.0,4.0,50,0.00,,,0.00,WeatherTracker,2013-01-08 01:04:00,
2013-01-07 20:09:00,29.1,12.8,17.72,West,267,3.0,3.0,50,0.00,,,0.00,WeatherTracker,2013-01-08 01:09:00,
2013-01-07 20:14:00,29.1,12.8,17.72,West,279,4.0,4.0,50,0.00,,,0.00,WeatherTracker,2013-01-08 01:14:00,
2013-01-07 20:19:00,29.1,12.8,17.72,SW,227,4.0,6.0,50,0.00,,,0.00,WeatherTracker,2013-01-08 01:19:00,
2013-01-07 20:24:00,29.3,13.0,17.72,SW,231,0.0,0.0,50,0.00,,,0.00,WeatherTracker,2013-01-08 01:24:00,
2013-01-07 20:29:00,29.5,13.2,17.72,WNW,282,5.0,7.0,50,0.00,,,0.00,WeatherTracker,2013-01-08 01:29:00,
2013-01-07 20:34:00,29.5,13.2,17.72,SW,235,3.0,8.0,50,0.00,,,0.00,WeatherTracker,2013-01-08 01:34:00,
2013-01-07 20:39:00,29.5,13.6,17.72,SW,231,4.0,4.0,51,0.00,,,0.00,WeatherTracker,2013-01-08 01:39:00,
2013-01-07 20:44:00,29.5,13.6,17.72,SW,221,2.0,0.0,51,0.00,,,0.00,WeatherTracker,2013-01-08 01:44:00,
2013-01-07 20:49:00,29.7,13.8,17.72,West,277,4.0,6.0,51,0.00,,,0.00,WeatherTracker,2013-01-08 01:49:00,
2013-01-07 20:54:00,29.5,13.6,17.72,WSW,245,2.0,8.0,51,0.00,,,0.00,WeatherTracker,2013-01-08 01:54:00,
2013-01-07 20:59:00,29.5,13.6,17.72,SSW,210,4.0,4.0,51,0.00,,,0.00,WeatherTracker,2013-01-08 01:59:00,
2013-01-07 21:04:00,29.7,13.8,17.72,SW,228,4.0,4.0,51,0.00,,,0.00,WeatherTracker,2013-01-08 02:04:00,
2013-01-07 21:09:00,29.7,13.8,17.72,SSW,208,6.0,6.0,51,0.00,,,0.00,WeatherTracker,2013-01-08 02:09:00,
2013-01-07 21:14:00,29.7,13.8,17.72,SSW,212,4.0,4.0,51,0.00,,,0.00,WeatherTracker,2013-01-08 02:14:00,
2013-01-07 21:19:00,29.5,13.6,17.72,WSW,248,4.0,5.0,51,0.00,,,0.00,WeatherTracker,2013-01-08 02:19:00,
2013-01-07 21:24:00,29.5,13.6,17.72,West,263,4.0,4.0,51,0.00,,,0.00,WeatherTracker,2013-01-08 02:24:00,
2013-01-07 21:29:00,29.5,13.6,17.72,SSW,196,4.0,5.0,51,0.00,,,0.00,WeatherTracker,2013-01-08 02:29:00,
2013-01-07 21:34:00,29.5,13.6,17.72,WSW,248,6.0,6.0,51,0.00,,,0.00,WeatherTracker,2013-01-08 02:34:00,
2013-01-07 21:39:00,29.5,13.6,17.72,West,266,6.0,7.0,51,0.00,,,0.00,WeatherTracker,2013-01-08 02:39:00,
2013-01-07 21:44:00,29.5,13.6,17.72,West,268,4.0,0.0,51,0.00,,,0.00,WeatherTracker,2013-01-08 02:44:00,
2013-01-07 21:49:00,29.5,13.6,17.72,SSW,194,4.0,8.0,51,0.00,,,0.00,WeatherTracker,2013-01-08 02:49:00,
2013-01-07 21:54:00,29.5,13.6,17.72,WNW,290,3.0,4.0,51,0.00,,,0.00,WeatherTracker,2013-01-08 02:54:00,
2013-01-07 21:59:00,29.5,13.6,17.72,WSW,248,4.0,6.0,51,0.00,,,0.00,WeatherTracker,2013-01-08 02:59:00,
2013-01-07 22:04:00,29.5,13.6,17.72,SW,225,3.0,3.0,51,0.00,,,0.00,WeatherTracker,2013-01-08 03:04:00,
2013-01-07 22:09:00,29.5,13.6,17.72,SW,229,3.0,3.0,51,0.00,,,0.00,WeatherTracker,2013-01-08 03:09:00,
2013-01-07 22:14:00,29.3,13.4,17.72,WSW,237,4.0,5.0,51,0.00,,,0.00,WeatherTracker,2013-01-08 03:14:00,
2013-01-07 22:19:00,29.3,13.4,17.72,SW,234,4.0,8.0,51,0.00,,,0.00,WeatherTracker,2013-01-08 03:19:00,
2013-01-07 22:24:00,29.3,13.4,17.72,WSW,242,4.0,6.0,51,0.00,,,0.00,WeatherTracker,2013-01-08 03:24:00,
2013-01-07 22:29:00,29.1,13.3,17.72,WSW,242,6.0,6.0,51,0.00,,,0.00,WeatherTracker,2013-01-08 03:29:00,
2013-01-07 22:34:00,29.1,13.3,17.72,West,270,3.0,5.0,51,0.00,,,0.00,WeatherTracker,2013-01-08 03:34:00,
2013-01-07 22:39:00,28.9,13.1,17.72,WSW,243,4.0,5.0,51,0.00,,,0.00,WeatherTracker,2013-01-08 03:39:00,
2013-01-07 22:44:00,28.8,13.4,17.72,SW,229,4.0,4.0,52,0.00,,,0.00,WeatherTracker,2013-01-08 03:44:00,
2013-01-07 22:49:00,28.8,13.4,17.72,SSW,208,3.0,3.0,52,0.00,,,0.00,WeatherTracker,2013-01-08 03:49:00,
2013-01-07 22:54:00,28.8,13.4,17.72,SW,225,5.0,9.0,52,0.00,,,0.00,WeatherTracker,2013-01-08 03:54:00,
2013-01-07 22:59:00,28.8,13.4,17.72,SSW,204,4.0,4.0,52,0.00,,,0.00,WeatherTracker,2013-01-08 03:59:00,
2013-01-07 23:04:00,28.8,13.4,17.72,SW,230,4.0,4.0,52,0.00,,,0.00,WeatherTracker,2013-01-08 04:04:00,
2013-01-07 23:09:00,28.8,13.4,17.72,West,273,4.0,5.0,52,0.00,,,0.00,WeatherTracker,2013-01-08 04:09:00,
2013-01-07 23:14:00,28.8,13.4,17.72,SW,236,3.0,4.0,52,0.00,,,0.00,WeatherTracker,2013-01-08 04:14:00,
2013-01-07 23:19:00,28.8,13.4,17.72,SSW,209,0.0,6.0,52,0.00,,,0.00,WeatherTracker,2013-01-08 04:19:00,
2013-01-07 23:24:00,28.8,13.4,17.72,SW,236,3.0,6.0,52,0.00,,,0.00,WeatherTracker,2013-01-08 04:24:00,
2013-01-07 23:29:00,28.8,13.4,17.72,WSW,255,5.0,8.0,52,0.00,,,0.00,WeatherTracker,2013-01-08 04:29:00,
2013-01-07 23:34:00,28.8,13.8,17.72,WNW,288,5.0,0.0,53,0.00,,,0.00,WeatherTracker,2013-01-08 04:34:00,
2013-01-07 23:39:00,28.9,14.0,17.72,WSW,238,4.0,8.0,53,0.00,,,0.00,WeatherTracker,2013-01-08 04:39:00,
2013-01-07 23:44:00,28.9,14.0,17.72,West,268,2.0,0.0,53,0.00,,,0.00,WeatherTracker,2013-01-08 04:44:00,
2013-01-07 23:49:00,28.9,14.0,17.72,WSW,239,3.0,3.0,53,0.00,,,0.00,WeatherTracker,2013-01-08 04:49:00,
2013-01-07 23:54:00,29.1,14.1,17.72,WSW,248,0.0,0.0,53,0.00,,,0.00,WeatherTracker,2013-01-08 04:54:00,
2013-01-07 23:59:00,28.9,14.0,17.72,SSW,199,0.0,4.0,53,0.00,,,0.00,WeatherTracker,2013-01-08 04:59:00,